Regional Weather Roundup
Issued by NWS

Home | Current Version | Previous Version | Text Only | Print | Product List | Glossary Off
Versions: 1 2 3 4 5 6 7 8 9 10 11 12 13 14 15 16 17 18 19 20 21 22 23 24 25 26 27 28 29 30 31 32 33 34 35 36 37 38 39 40 41 42 43 44 45 46 47 48 49 50

636
ASUS45 KSLC 221510
RWRUT

UTAH REGIONAL WEATHER ROUNDUP
NATIONAL WEATHER SERVICE SALT LAKE CITY UT
800 AM MST MON JAN 22 2018

UTZ001>011-023>025-221600-

NORTHERN UTAH

CITY           SKY/WX    TMP DP  RH WIND       PRES   REMARKS
BRIGHAM CITY   MOCLDY    22  17  79 E5        30.30F WCI  16
HILL AFB       PTCLDY    16   8  70 E17       30.28R WCI   0
LOGAN          CLOUDY    12   7  80 CALM      30.29S
OGDEN          MOCLDY    18  10  71 S9        30.28S WCI   7
SALT LAKE CITY MOCLDY    25  17  72 SE13      30.30S WCI  14
TOOELE VALLEY  PTCLDY    19  16  86 S15       30.29S WCI   5
WENDOVER       CLOUDY    21  15  78 CALM      30.28S
HEBER CITY     LGT SNOW   1  -4  78 CALM      30.29R
WEST JORDAN    PTCLDY    19  16  86 S8        30.30S WCI   9

$$

UTZ011>015-024>027-221600-

CENTRAL/NORTHEAST UTAH

CITY           SKY/WX    TMP DP  RH WIND       PRES   REMARKS
PROVO AIRPORT  PTCLDY    12   9  87 CALM      30.35R
MOAB/CANYONLAN CLEAR     16  13  88 CALM      30.30R
DELTA          MOCLDY     5   3  92 NE7       30.31F WCI  -7
PRICE          PTCLDY     8   3  80 N3        30.24R
RICHFIELD      PTCLDY     0  -2  92 CALM      30.33S FOG
ROOSEVELT      PTCLDY    10   5  79 W3        30.31R
VERNAL         MOCLDY     8   2  76 W5        30.28R WCI   0

$$

UTZ013>016-019>022-027-221600-

SOUTHERN UTAH

CITY           SKY/WX    TMP DP  RH WIND       PRES   REMARKS
BRYCE CANYON   MOCLDY    -2  -6  83 W6        30.23S WCI -14
CEDAR CITY     PTCLDY     2  -2  83 NW3       30.26F
MILFORD        NOT AVBL
ST GEORGE      MOSUNNY   27  22  81 SE6       30.36S WCI  20
HANKSVILLE     MOCLDY    10   1  67 NW3       30.34R
KANAB          CLEAR     14  10  85 NE5       30.34R WCI   6
BLANDING         N/A     10   5  79 N6        30.32R WCI   1

$$

REGIONAL REPORTS     COLORADO/ARIZONA

CITY           SKY/WX    TMP DP  RH WIND       PRES   REMARKS
CRAIG, CO      PTCLDY   -10 -15  78 CALM      30.26R
GRAND JUNCTION PTCLDY    15   9  76 E9        30.31R WCI   3
RIFLE, CO      CLEAR     12   9  87 E5        30.31R WCI   4
MONTROSE, CO   CLEAR     11   6  81 SE8       30.32R WCI  -1
CORTEZ, CO     PTCLDY     0  -4  83 NE7       30.24R WCI -13
COLORADO CITY    N/A     12  10  92 CALM      30.32R
PAGE, AZ       PTCLDY    25  11  55 CALM      30.30R
GRAND CANYON   PTCLDY     2  -1  88 CALM      30.23S
KINGMAN, AZ    PTCLDY   N/A N/A N/A E8        30.29R
FLAGSTAFF, AZ  PTCLDY    -1  -6  79 CALM      30.22S

$$

REGIONAL REPORTS    NEVADA/IDAHO/WYOMING

CITY           SKY/WX    TMP DP  RH WIND       PRES   REMARKS
LAS VEGAS, NV  PTCLDY    37  25  61 S5        30.34R WCI  33
ELY, NY        CLOUDY     9   4  80 S14       30.27R WCI  -7
ELKO, NV       CLOUDY    28  23  81 W9        30.23S WCI  19
POCATELLO, ID  CLOUDY    30  19  63 S21G26    30.20S WCI  17
BURLEY, ID     CLOUDY    33  21  61 S18       30.18S WCI  22
EVANSTON, WY   PTCLDY     7   4  87 SW12      30.18S WCI  -8
ROCK SPRINGS,  PTCLDY     9   5  84 W20       30.15F WCI -10

$$




USA.gov is the U.S. government's official web portal to all federal, state and local government web resources and services.